Location: Artiguedieu
(43.5000°N, 0.5454°E)
Time: 12:14:28
(UTC+00:00)

USA 290 - Pass Details

Date: 06 December 2020
Orbit: 398 x 413 km, 73.6° (Epoch: 25 January)

Event Time Altitude Azimuth Distance (km) Brightness Sun altitude
Exits shadow 06:40:38 - 322° (NW) 1,773 4.9 -6.6°
Reaches altitude 10° 06:41:24 10° 316° (NW) 1,483 4.4 -6.4°
Maximum altitude 06:44:13 27° 256° (WSW) 818 3.3 -6.0°
Drops below altitude 10° 06:46:59 10° 196° (SSW) 1,463 5.1 -5.5°
Sets 06:49:11 0° 184° (S) 2,314 6.3 -5.2°
